�������l�o���
Date,Time,MP-1(��Sv/h),MP-2(��Sv/h),MP-3(��Sv/h),MP-4(��Sv/h),MP-5(��Sv/h),MP-6(��Sv/h),MP-7(��Sv/h),MP-8(��Sv/h),����,����(m/s),���J
2018/08/19,00:00,0.850,1.255,0.880,1.578,1.137,0.474,0.832,0.789,��쐼,4.5,��
2018/08/19,00:10,0.852,1.251,0.879,1.575,1.138,0.475,0.832,0.788,��쐼,4.2,��
2018/08/19,00:20,0.851,1.254,0.882,1.577,1.140,0.475,0.833,0.788,��쐼,4.4,��
2018/08/19,00:30,0.849,1.254,0.879,1.575,1.137,0.475,0.833,0.788,��쐼,3.9,��
2018/08/19,00:40,0.851,1.254,0.880,1.576,1.138,0.477,0.831,0.788,�쐼,3.7,��
2018/08/19,00:50,0.850,1.254,0.879,1.575,1.138,0.474,0.833,0.789,�쐼,3.3,��
2018/08/19,01:00,0.850,1.254,0.880,1.573,1.138,0.478,0.834,0.788,�쐼,3.7,��
2018/08/19,01:10,0.850,1.253,0.880,1.575,1.138,0.477,0.833,0.788,�쐼,3.6,��
2018/08/19,01:20,0.851,1.252,0.878,1.573,1.139,0.476,0.831,0.789,��,3.7,��
2018/08/19,01:30,0.850,1.257,0.879,1.574,1.139,0.476,0.832,0.789,��쐼,3.1,��
2018/08/19,01:40,0.851,1.252,0.881,1.575,1.139,0.474,0.832,0.789,��쐼,3.0,��
2018/08/19,01:50,0.853,1.254,0.880,1.576,1.138,0.474,0.833,0.788,��쐼,2.6,��
2018/08/19,02:00,0.850,1.254,0.881,1.577,1.138,0.475,0.833,0.788,��,2.3,��
2018/08/19,02:10,0.851,1.255,0.877,1.573,1.138,0.474,0.832,0.788,��,1.7,��
2018/08/19,02:20,0.850,1.255,0.880,1.575,1.139,0.475,0.832,0.788,��쐼,2.2,��
2018/08/19,02:30,0.851,1.253,0.880,1.575,1.137,0.476,0.831,0.789,�쐼,3.4,��
2018/08/19,02:40,0.850,1.256,0.877,1.572,1.139,0.475,0.833,0.789,�쐼,3.3,��
2018/08/19,02:50,0.848,1.254,0.879,1.573,1.139,0.476,0.833,0.787,�쐼,3.4,��
2018/08/19,03:00,0.849,1.253,0.877,1.572,1.135,0.475,0.833,0.788,��쐼,3.6,��
2018/08/19,03:10,0.851,1.252,0.879,1.572,1.136,0.475,0.831,0.787,��쐼,3.8,��
2018/08/19,03:20,0.849,1.255,0.881,1.574,1.137,0.475,0.833,0.787,��쐼,3.9,��
2018/08/19,03:30,0.851,1.256,0.877,1.574,1.138,0.475,0.832,0.789,��쐼,3.3,��
2018/08/19,03:40,0.849,1.255,0.880,1.574,1.136,0.475,0.832,0.787,��쐼,3.5,��
2018/08/19,03:50,0.850,1.252,0.877,1.573,1.138,0.475,0.831,0.787,��,2.6,��
2018/08/19,04:00,0.848,1.254,0.879,1.574,1.136,0.474,0.832,0.787,��,2.8,��
2018/08/19,04:10,0.847,1.250,0.879,1.574,1.135,0.475,0.832,0.788,��,3.6,��
2018/08/19,04:20,0.847,1.252,0.880,1.572,1.136,0.476,0.832,0.790,��,3.6,��
2018/08/19,04:30,0.849,1.253,0.879,1.572,1.135,0.474,0.832,0.787,��,3.1,��
2018/08/19,04:40,0.850,1.250,0.879,1.571,1.137,0.475,0.831,0.788,��,3.4,��
2018/08/19,04:50,0.850,1.248,0.877,1.572,1.136,0.476,0.831,0.788,��,4.0,��
2018/08/19,05:00,0.849,1.252,0.878,1.572,1.136,0.475,0.830,0.789,��,3.9,��
2018/08/19,05:10,0.848,1.250,0.878,1.572,1.135,0.476,0.832,0.787,��쐼,3.5,��
2018/08/19,05:20,0.847,1.251,0.878,1.574,1.135,0.474,0.832,0.789,��,3.6,��
2018/08/19,05:30,0.848,1.251,0.879,1.572,1.138,0.475,0.831,0.788,��쐼,2.6,��
2018/08/19,05:40,0.848,1.255,0.880,1.574,1.137,0.476,0.834,0.789,��쐼,2.0,��
2018/08/19,05:50,0.848,1.250,0.880,1.572,1.134,0.475,0.830,0.789,��쐼,2.0,��
2018/08/19,06:00,0.850,1.254,0.878,1.574,1.136,0.474,0.832,0.788,��쐼,1.9,��
2018/08/19,06:10,0.851,1.255,0.881,1.575,1.136,0.475,0.832,0.788,��쐼,1.5,��
2018/08/19,06:20,0.847,1.254,0.879,1.574,1.135,0.475,0.832,0.788,��,3.0,��
2018/08/19,06:30,0.849,1.254,0.879,1.576,1.137,0.475,0.833,0.787,��,4.2,��
2018/08/19,06:40,0.850,1.255,0.878,1.574,1.138,0.475,0.835,0.788,��,4.8,��
2018/08/19,06:50,0.851,1.253,0.879,1.573,1.138,0.476,0.835,0.788,��,5.1,��
2018/08/19,07:00,0.850,1.255,0.879,1.571,1.138,0.475,0.835,0.788,��,4.8,��
2018/08/19,07:10,0.851,1.253,0.880,1.573,1.136,0.475,0.836,0.790,��쓌,5.5,��
2018/08/19,07:20,0.852,1.251,0.882,1.572,1.135,0.475,0.834,0.788,��쓌,5.0,��
2018/08/19,07:30,0.851,1.252,0.882,1.575,1.137,0.474,0.835,0.788,��쓌,4.5,��
2018/08/19,07:40,0.849,1.250,0.882,1.577,1.138,0.472,0.835,0.791,��쓌,4.2,��
2018/08/19,07:50,0.848,1.251,0.883,1.574,1.136,0.474,0.834,0.789,��쓌,5.9,��
2018/08/19,08:00,0.852,1.250,0.881,1.580,1.136,0.473,0.835,0.788,��쓌,6.4,��
2018/08/19,08:10,0.852,1.252,0.881,1.576,1.137,0.474,0.836,0.789,��쓌,4.9,��
2018/08/19,08:20,0.849,1.252,0.880,1.575,1.141,0.474,0.835,0.787,��쓌,7.1,��
2018/08/19,08:30,0.851,1.254,0.881,1.577,1.141,0.474,0.834,0.787,��쓌,6.5,��
2018/08/19,08:40,0.851,1.252,0.881,1.575,1.140,0.474,0.832,0.787,��쓌,8.6,��
2018/08/19,08:50,0.849,1.254,0.880,1.577,1.138,0.473,0.832,0.787,��,7.5,��
2018/08/19,09:00,0.851,1.258,0.880,1.576,1.139,0.475,0.833,0.787,��,7.8,��
2018/08/19,09:10,0.849,1.256,0.881,1.576,1.138,0.475,0.834,0.787,��,7.7,��
2018/08/19,09:20,0.850,1.258,0.879,1.575,1.140,0.477,0.833,0.787,��쓌,8.5,��
2018/08/19,09:30,0.850,1.255,0.882,1.577,1.139,0.476,0.833,0.786,��쓌,9.2,��
2018/08/19,09:40,0.851,1.257,0.880,1.577,1.139,0.476,0.834,0.794,��쓌,9.2,��
2018/08/19,09:50,0.850,1.255,0.880,1.576,1.139,0.476,0.835,0.788,��쓌,9.2,��
2018/08/19,10:00,0.851,1.257,0.880,1.574,1.141,0.478,0.834,0.787,��쓌,9.0,��
2018/08/19,10:10,0.850,1.259,0.882,1.577,1.141,0.475,0.833,0.788,��쓌,8.7,��
2018/08/19,10:20,0.851,1.255,0.881,1.577,1.141,0.478,0.835,0.787,��쓌,10.2,��
2018/08/19,10:30,0.855,1.257,0.881,1.578,1.140,0.478,0.834,0.788,��쓌,10.0,��
2018/08/19,10:40,0.851,1.256,0.882,1.576,1.141,0.477,0.834,0.787,��쓌,9.8,��
2018/08/19,10:50,0.851,1.257,0.881,1.577,1.143,0.477,0.833,0.786,��쓌,11.7,��
2018/08/19,11:00,0.851,1.258,0.881,1.578,1.144,0.476,0.834,0.788,��쓌,9.6,��
2018/08/19,11:10,0.852,1.259,0.880,1.573,1.142,0.477,0.834,0.788,��쓌,11.6,��
2018/08/19,11:20,0.852,1.258,0.880,1.573,1.141,0.478,0.836,0.787,��쓌,10.2,��
2018/08/19,11:30,0.852,1.258,0.882,1.574,1.145,0.477,0.834,0.788,��쓌,10.9,��
2018/08/19,11:40,0.852,1.259,0.883,1.574,1.142,0.477,0.834,0.787,��쓌,11.8,��
2018/08/19,11:50,0.853,1.259,0.885,1.576,1.140,0.475,0.835,0.788,��쓌,12.7,��
2018/08/19,12:00,0.854,1.259,0.882,1.576,1.145,0.477,0.836,0.789,��쓌,10.9,��
2018/08/19,12:10,0.853,1.259,0.883,1.577,1.146,0.477,0.834,0.787,��,9.9,��
2018/08/19,12:20,0.856,1.263,0.884,1.577,1.143,0.476,0.835,0.787,��,11.7,��
2018/08/19,12:30,0.854,1.261,0.883,1.576,1.145,0.477,0.835,0.788,��쓌,11.4,��
2018/08/19,12:40,0.854,1.259,0.884,1.577,1.145,0.475,0.833,0.788,��쓌,10.2,��
2018/08/19,12:50,0.856,1.261,0.883,1.578,1.145,0.477,0.834,0.790,��쓌,11.0,��
2018/08/19,13:00,0.854,1.262,0.883,1.577,1.145,0.477,0.836,0.789,��쓌,11.3,��
2018/08/19,13:10,0.853,1.259,0.884,1.574,1.147,0.478,0.837,0.788,��쓌,9.9,��
2018/08/19,13:20,0.854,1.260,0.880,1.575,1.147,0.477,0.834,0.788,��쓌,10.7,��
2018/08/19,13:30,0.853,1.259,0.884,1.575,1.145,0.476,0.835,0.791,��쓌,12.1,��
2018/08/19,13:40,0.853,1.259,0.883,1.578,1.145,0.478,0.836,0.789,��쓌,12.4,��
2018/08/19,13:50,0.854,1.261,0.883,1.579,1.146,0.478,0.836,0.788,��,11.0,��
2018/08/19,14:00,0.855,1.261,0.884,1.579,1.148,0.479,0.836,0.791,��쓌,11.6,��
2018/08/19,14:10,0.856,1.262,0.883,1.581,1.147,0.476,0.835,0.790,��쓌,11.4,��
2018/08/19,14:20,0.855,1.262,0.885,1.578,1.145,0.478,0.835,0.790,��,9.7,��
2018/08/19,14:30,0.855,1.261,0.886,1.581,1.147,0.477,0.835,0.787,��쓌,7.0,��
2018/08/19,14:40,0.855,1.260,0.884,1.584,1.147,0.477,0.838,0.787,��쓌,11.6,��
2018/08/19,14:50,0.855,1.259,0.885,1.581,1.146,0.479,0.835,0.788,��쓌,10.2,��
2018/08/19,15:00,0.854,1.261,0.885,1.578,1.146,0.475,0.836,0.787,��쓌,9.8,��
2018/08/19,15:10,0.858,1.261,0.882,1.580,1.146,0.477,0.837,0.790,��쓌,10.2,��
2018/08/19,15:20,0.855,1.261,0.882,1.582,1.146,0.478,0.837,0.789,��쓌,9.1,��
2018/08/19,15:30,0.856,1.259,0.886,1.579,1.145,0.478,0.836,0.788,��,8.7,��
2018/08/19,15:40,0.855,1.260,0.883,1.581,1.148,0.477,0.837,0.787,��쓌,9.0,��
2018/08/19,15:50,0.856,1.262,0.885,1.581,1.150,0.477,0.837,0.789,��쓌,10.6,��
2018/08/19,16:00,0.856,1.264,0.884,1.582,1.152,0.478,0.836,0.788,��쓌,9.7,��
2018/08/19,16:10,0.855,1.263,0.884,1.581,1.149,0.478,0.836,0.789,��쓌,9.7,��
2018/08/19,16:20,0.856,1.264,0.885,1.580,1.148,0.477,0.836,0.788,��,9.8,��
2018/08/19,16:30,0.854,1.265,0.885,1.579,1.150,0.477,0.837,0.788,��,9.0,��
2018/08/19,16:40,0.856,1.265,0.884,1.581,1.148,0.478,0.836,0.790,��쓌,10.2,��
2018/08/19,16:50,0.854,1.263,0.887,1.580,1.147,0.479,0.834,0.792,��,9.4,��
2018/08/19,17:00,0.856,1.264,0.885,1.582,1.149,0.479,0.837,0.792,��쓌,10.9,��
2018/08/19,17:10,0.855,1.264,0.886,1.583,1.150,0.481,0.838,0.792,��쓌,10.9,��
2018/08/19,17:20,0.856,1.262,0.885,1.584,1.150,0.480,0.837,0.790,��쓌,10.8,��
2018/08/19,17:30,0.857,1.262,0.886,1.584,1.146,0.479,0.836,0.794,��쓌,9.9,��
2018/08/19,17:40,0.855,1.264,0.884,1.584,1.148,0.478,0.835,0.792,��쓌,10.9,��
2018/08/19,17:50,0.855,1.263,0.881,1.582,1.148,0.480,0.835,0.790,��쓌,8.9,��
2018/08/19,18:00,0.854,1.263,0.882,1.579,1.149,0.477,0.834,0.792,��,9.5,��
2018/08/19,18:10,0.855,1.263,0.884,1.578,1.148,0.476,0.835,0.791,��,9.5,��
2018/08/19,18:20,0.854,1.264,0.884,1.579,1.148,0.479,0.836,0.793,��,8.6,��
2018/08/19,18:30,0.853,1.263,0.887,1.581,1.147,0.478,0.835,0.789,��,8.8,��
2018/08/19,18:40,0.853,1.262,0.885,1.584,1.148,0.479,0.837,0.791,��,8.8,��
2018/08/19,18:50,0.855,1.262,0.886,1.584,1.148,0.478,0.836,0.791,��,8.0,��
2018/08/19,19:00,0.855,1.261,0.884,1.584,1.148,0.476,0.837,0.789,��,6.9,��
2018/08/19,19:10,0.855,1.263,0.886,1.583,1.146,0.477,0.838,0.791,��,7.4,��
2018/08/19,19:20,0.854,1.260,0.887,1.584,1.148,0.478,0.836,0.791,��,8.8,��
2018/08/19,19:30,0.855,1.263,0.885,1.586,1.149,0.477,0.837,0.791,��,8.3,��
2018/08/19,19:40,0.854,1.263,0.885,1.584,1.150,0.479,0.835,0.791,��,8.2,��
2018/08/19,19:50,0.853,1.263,0.888,1.581,1.149,0.478,0.836,0.791,��,8.0,��
2018/08/19,20:00,0.855,1.263,0.887,1.585,1.149,0.478,0.835,0.792,��,7.1,��
2018/08/19,20:10,0.854,1.263,0.886,1.583,1.151,0.478,0.836,0.792,��,7.7,��
2018/08/19,20:20,0.854,1.261,0.886,1.584,1.148,0.478,0.837,0.790,��,7.9,��
2018/08/19,20:30,0.853,1.265,0.888,1.585,1.151,0.478,0.837,0.791,��,9.4,��
2018/08/19,20:40,0.852,1.263,0.888,1.584,1.152,0.478,0.836,0.790,��,9.2,��
2018/08/19,20:50,0.854,1.261,0.887,1.582,1.151,0.478,0.835,0.791,��,9.8,��
2018/08/19,21:00,0.853,1.260,0.888,1.586,1.150,0.478,0.837,0.791,��,10.8,��
2018/08/19,21:10,0.856,1.261,0.888,1.584,1.151,0.477,0.836,0.790,��,8.6,��
2018/08/19,21:20,0.855,1.263,0.887,1.585,1.150,0.478,0.837,0.790,��,8.0,��
2018/08/19,21:30,0.854,1.263,0.889,1.585,1.149,0.478,0.837,0.791,��,6.6,��
2018/08/19,21:40,0.853,1.264,0.888,1.583,1.152,0.477,0.836,0.792,��,5.8,��
2018/08/19,21:50,0.854,1.263,0.886,1.583,1.149,0.478,0.838,0.789,��,6.3,��
2018/08/19,22:00,0.853,1.262,0.886,1.582,1.150,0.477,0.835,0.792,��,6.4,��
2018/08/19,22:10,0.854,1.266,0.887,1.585,1.148,0.477,0.836,0.792,��,7.0,��
2018/08/19,22:20,0.853,1.264,0.888,1.583,1.151,0.478,0.836,0.791,��,6.9,��
2018/08/19,22:30,0.853,1.264,0.888,1.585,1.147,0.479,0.837,0.791,��,6.8,��
2018/08/19,22:40,0.854,1.265,0.887,1.585,1.152,0.478,0.835,0.791,��,7.9,��
2018/08/19,22:50,0.856,1.264,0.888,1.585,1.149,0.479,0.836,0.791,��,7.6,��
2018/08/19,23:00,0.856,1.263,0.886,1.585,1.147,0.478,0.836,0.791,��쐼,7.7,��
2018/08/19,23:10,0.855,1.264,0.886,1.585,1.149,0.477,0.838,0.792,��,7.5,��
2018/08/19,23:20,0.856,1.265,0.887,1.585,1.147,0.478,0.835,0.792,��,7.1,��
2018/08/19,23:30,0.856,1.263,0.887,1.582,1.148,0.478,0.837,0.790,��,8.1,��
2018/08/19,23:40,0.853,1.263,0.887,1.582,1.149,0.479,0.836,0.792,��,7.7,��
2018/08/19,23:50,0.858,1.263,0.886,1.583,1.149,0.476,0.837,0.791,��,7.8,��
